Location: Batang Balui
(2.7000°N, 113.7833°E)
Time: 20:02:08
(UTC+00:00)

X-37B - Visible Passes

Search period start: 27 November 2022 00:00
Search period end: 07 December 2022 00:00
Orbit: 277 x 277 km, 45.0° (Epoch: 01 November)

Date Brightness Start Highest point End Pass type
(mag) Time Alt. Az. Time Alt. Az. Time Alt. Az.
27 Nov 2.5 11:20:55 10° S 11:21:38 14° SSE 11:21:38 14° SSE visible
28 Nov 0.6 11:20:50 10° SSW 11:22:49 45° S 11:22:49 45° S visible
29 Nov 1.1 11:21:35 10° WSW 11:23:52 34° NW 11:24:02 34° NW visible
30 Nov 2.8 11:23:29 10° WNW 11:24:31 12° NW 11:25:16 11° NNW visible
01 Dec 2.0 21:02:54 20° NNE 21:03:21 21° NE 21:05:17 10° E visible
02 Dec 0.0 21:04:07 73° E 21:04:07 73° E 21:06:26 10° SE visible
03 Dec 1.8 21:05:18 22° SSW 21:05:18 22° SSW 21:06:45 10° SSE visible
